Location: Eferding
(48.3167°N, 14.0167°E)
Time: 07:39:53
(UTC+00:00)

Cosmos 1818 - Pass Details

Date: 12 November 2019
Orbit: 776 x 797 km, 65.0° (Epoch: 12 December)

Event Time Altitude Azimuth Distance (km) Brightness Sun altitude
Rises 16:04:25 0° 319° (NW) 3,311 7.1 -6.2°
Reaches altitude 10° 16:06:53 10° 316° (NW) 2,376 6.4 -6.6°
Maximum altitude 16:12:15 60° 238° (WSW) 906 4.3 -7.4°
Drops below altitude 10° 16:17:34 10° 159° (SSE) 2,352 6.0 -8.2°
Sets 16:20:00 0° 156° (SSE) 3,274 6.7 -8.6°
